Weather History for Courtland, AL

Change the Weather History Date:

Monday, January 21, 2013

  Actual Average (KMSL) Record (KMSL)
Temperature  
Mean Temperature 38 °F 41 °F  
Max Temperature 46 °F 51 °F 75 °F (1937)
Min Temperature 30 °F 31 °F -11 °F (1985)
Degree Days  
Heating Degree Days 27 24  
Month to date heating degree days 504  
Since 1 July heating degree days 1740  
Cooling Degree Days 0 0  
Month to date cooling degree days 0  
Year to date cooling degree days 0  
Moisture  
Dew Point 23 °F    
Average Humidity 65    
Maximum Humidity 100    
Minimum Humidity 34    
Precipitation  
Precipitation 0.00 in 0.15 in 2.40 in (1927)
Month to date precipitation 3.07  
Year to date precipitation 3.07  
Snow  
Snow 0.00 in - - ()
Month to date snowfall  
Since 1 July snowfall  
Snow Depth -    
Sea Level Pressure  
Sea Level Pressure 30.24 in    
Wind  
Wind Speed 4 mph (NNW)    
Max Wind Speed 15 mph    
Max Gust Speed 21 mph    
Visibility 10 miles    
Events      
T = Trace of Precipitation, MM = Missing Value Source: NWS Daily Summary

Daily Weather History Graph

Daily Weather History Graph

Search for Another Location

Airport:

Trip Planner

Search our weather history database for the weather conditions in past years. The results will help you decide how hot, cold, wet, or windy it might be!

Date:

Astronomy

Jan. 21, 2013 Rise Set
Actual Time 6:53 AM CST 5:08 PM CST
Civil Twilight 6:26 AM CST 5:35 PM CST
Nautical Twilight 5:56 AM CST 6:05 PM CST
Astronomical Twilight 5:26 AM CST 6:35 PM CST
Moon 12:48 PM CST (1/21) 2:21 AM CST (1/21)
Length of Visible Light 11h 08m
Length of Day
10h 14m
Waxing Gibbous, 75% of the Moon is Illuminated
Jan 21
Waxing Gibbous
Jan 26
Full
Feb 3
Last Quarter
Feb 10
New
Feb 17
First Quarter

Hourly Weather History & Observations

Time (CST) Temp. Windchill Dew Point Humidity Pressure Visibility Wind Dir Wind Speed Gust Speed Precip Events Conditions
12:15 AM 32.0 °F - 32.0 °F 100% 30.17 in 10.0 mi Calm Calm - N/A   Clear
12:35 AM 32.0 °F - 32.0 °F 100% 30.17 in 10.0 mi Calm Calm - N/A   Clear
12:55 AM 32.0 °F - 32.0 °F 100% 30.16 in 10.0 mi Calm Calm - N/A   Clear
1:15 AM 32.0 °F - 32.0 °F 100% 30.16 in 10.0 mi Calm Calm - N/A   Clear
1:35 AM 32.0 °F - 32.0 °F 100% 30.17 in 10.0 mi Calm Calm - N/A   Clear
1:55 AM 30.2 °F - 30.2 °F 100% 30.17 in 10.0 mi Calm Calm - N/A   Clear
2:15 AM 30.2 °F - 30.2 °F 100% 30.17 in 10.0 mi Calm Calm - N/A   Clear
2:35 AM 32.0 °F - 32.0 °F 100% 30.16 in 10.0 mi Calm Calm - N/A   Clear
2:55 AM 32.0 °F - 32.0 °F 100% 30.16 in 10.0 mi Calm Calm - N/A   Clear
3:15 AM 32.0 °F - 32.0 °F 100% 30.15 in 10.0 mi Calm Calm - N/A   Clear
3:35 AM 30.2 °F 26.7 °F 30.2 °F 100% 30.15 in 10.0 mi North 3.5 mph - N/A   Clear
3:55 AM 30.2 °F 25.4 °F 30.2 °F 100% 30.16 in 10.0 mi North 4.6 mph - N/A   Clear
4:15 AM 30.2 °F - 30.2 °F 100% 30.16 in 10.0 mi Calm Calm - N/A   Clear
4:35 AM 30.2 °F 25.4 °F 30.2 °F 100% 30.16 in 10.0 mi NNW 4.6 mph - N/A   Clear
4:55 AM 32.0 °F - 30.2 °F 93% 30.16 in 10.0 mi Calm Calm - N/A   Clear
5:15 AM 32.0 °F - 30.2 °F 93% 30.17 in 10.0 mi Calm Calm - N/A   Clear
5:35 AM 30.2 °F - 28.4 °F 93% 30.18 in 10.0 mi Calm Calm - N/A   Clear
5:55 AM 30.2 °F 26.7 °F 28.4 °F 93% 30.18 in 10.0 mi NNW 3.5 mph - N/A   Clear
6:15 AM 30.2 °F - 30.2 °F 100% 30.18 in 10.0 mi Calm Calm - N/A   Clear
6:35 AM 30.2 °F 25.4 °F 28.4 °F 93% 30.20 in 10.0 mi NNW 4.6 mph - N/A   Clear
6:55 AM 30.2 °F 24.3 °F 28.4 °F 93% 30.22 in 10.0 mi NNW 5.8 mph - N/A   Clear
7:15 AM 30.2 °F 25.4 °F 28.4 °F 93% 30.23 in 10.0 mi North 4.6 mph - N/A   Clear
7:35 AM 32.0 °F 26.4 °F 26.6 °F 80% 30.24 in 10.0 mi NNW 5.8 mph - N/A   Clear
7:55 AM 32.0 °F 27.5 °F 28.4 °F 87% 30.26 in 10.0 mi NNW 4.6 mph - N/A   Clear
8:15 AM 33.8 °F 27.7 °F 26.6 °F 75% 30.27 in 10.0 mi North 6.9 mph - N/A   Clear
8:35 AM 33.8 °F 26.4 °F 24.8 °F 70% 30.28 in 10.0 mi North 9.2 mph - N/A   Clear
8:55 AM 35.6 °F 27.1 °F 23.0 °F 60% 30.29 in 10.0 mi North 12.7 mph - N/A   Clear
9:15 AM 35.6 °F 26.6 °F 23.0 °F 60% 30.29 in 10.0 mi North 13.8 mph - N/A   Clear
9:35 AM 37.4 °F 30.3 °F 21.2 °F 52% 30.30 in 10.0 mi North 10.4 mph 16.1 mph N/A   Clear
9:55 AM 37.4 °F 28.5 °F 19.4 °F 48% 30.30 in 10.0 mi North 15.0 mph 18.4 mph N/A   Clear
10:15 AM 39.2 °F 33.6 °F 19.4 °F 45% 30.30 in 10.0 mi NNE 8.1 mph - N/A   Clear
10:35 AM 41.0 °F 33.9 °F 17.6 °F 39% 30.30 in 10.0 mi North 12.7 mph 16.1 mph N/A   Clear
10:55 AM 41.0 °F 34.7 °F 19.4 °F 42% 30.30 in 10.0 mi NNE 10.4 mph 17.3 mph N/A   Clear
11:15 AM 41.0 °F 33.1 °F 17.6 °F 39% 30.28 in 10.0 mi North 15.0 mph 20.7 mph N/A   Clear
11:35 AM 41.0 °F 34.3 °F 17.6 °F 39% 30.28 in 10.0 mi North 11.5 mph - N/A   Clear
11:55 AM 42.8 °F 36.2 °F 17.6 °F 36% 30.27 in 10.0 mi North 12.7 mph - N/A   Clear
12:15 PM 42.8 °F 35.8 °F 15.8 °F 34% 30.26 in 10.0 mi North 13.8 mph 17.3 mph N/A   Clear
12:35 PM 42.8 °F 37.5 °F 15.8 °F 34% 30.25 in 10.0 mi North 9.2 mph - N/A   Clear
12:55 PM 42.8 °F 41.1 °F 15.8 °F 34% 30.24 in 10.0 mi NW 3.5 mph 9.2 mph N/A   Clear
1:15 PM 44.6 °F 39.2 °F 17.6 °F 34% 30.23 in 10.0 mi NW 10.4 mph - N/A   Clear
1:35 PM 44.6 °F 42.2 °F 17.6 °F 34% 30.23 in 10.0 mi NW 4.6 mph - N/A   Clear
1:55 PM 44.6 °F 40.2 °F 17.6 °F 34% 30.23 in 10.0 mi NW 8.1 mph - N/A   Clear
2:15 PM 44.6 °F 42.2 °F 17.6 °F 34% 30.23 in 10.0 mi NW 4.6 mph - N/A   Clear
2:35 PM 44.6 °F 40.2 °F 17.6 °F 34% 30.23 in 10.0 mi North 8.1 mph - N/A   Clear
2:55 PM 44.6 °F 41.4 °F 17.6 °F 34% 30.23 in 10.0 mi NNE 5.8 mph - N/A   Clear
3:15 PM 46.4 °F 41.9 °F 19.4 °F 34% 30.23 in 10.0 mi North 9.2 mph - N/A   Clear
3:35 PM 44.6 °F 40.7 °F 17.6 °F 34% 30.23 in 10.0 mi North 6.9 mph - N/A   Clear
3:55 PM 44.6 °F 38.4 °F 17.6 °F 34% 30.24 in 10.0 mi North 12.7 mph - N/A   Clear
4:15 PM 44.6 °F 39.2 °F 17.6 °F 34% 30.24 in 10.0 mi North 10.4 mph - N/A   Clear
4:35 PM 42.8 °F 37.5 °F 17.6 °F 36% 30.24 in 10.0 mi NNW 9.2 mph - N/A   Clear
4:55 PM 42.8 °F 38.6 °F 17.6 °F 36% 30.24 in 10.0 mi NW 6.9 mph - N/A   Clear
5:15 PM 39.2 °F 34.2 °F 19.4 °F 45% 30.25 in 10.0 mi WNW 6.9 mph - N/A   Clear
5:35 PM 37.4 °F 32.1 °F 19.4 °F 48% 30.26 in 10.0 mi NW 6.9 mph - N/A   Clear
5:55 PM 35.6 °F 30.7 °F 19.4 °F 52% 30.27 in 10.0 mi NW 5.8 mph - N/A   Clear
6:15 PM 33.8 °F 27.7 °F 19.4 °F 56% 30.27 in 10.0 mi NW 6.9 mph - N/A   Clear
6:35 PM 33.8 °F 27.7 °F 21.2 °F 60% 30.28 in 10.0 mi NW 6.9 mph - N/A   Clear
6:55 PM 35.6 °F 28.6 °F 19.4 °F 52% 30.28 in 10.0 mi NW 9.2 mph - N/A   Clear
7:15 PM 33.8 °F 27.0 °F 19.4 °F 56% 30.27 in 10.0 mi NW 8.1 mph - N/A   Clear
7:35 PM 33.8 °F 27.0 °F 19.4 °F 56% 30.28 in 10.0 mi NW 8.1 mph - N/A   Clear
8:15 PM 32.0 °F 26.4 °F 21.2 °F 64% 30.29 in 10.0 mi NNW 5.8 mph - N/A   Clear
8:35 PM 32.0 °F 26.4 °F 21.2 °F 64% 30.29 in 10.0 mi NNW 5.8 mph - N/A   Clear
8:55 PM 32.0 °F 26.4 °F 21.2 °F 64% 30.29 in 10.0 mi NNW 5.8 mph - N/A   Clear
9:15 PM 32.0 °F 25.6 °F 21.2 °F 64% 30.29 in 10.0 mi NNW 6.9 mph - N/A   Clear
9:35 PM 30.2 °F 23.4 °F 21.2 °F 69% 30.30 in 10.0 mi NNW 6.9 mph - N/A   Clear
9:55 PM 32.0 °F 23.6 °F 19.4 °F 60% 30.31 in 10.0 mi North 10.4 mph - N/A   Clear
10:15 PM 32.0 °F 24.8 °F 19.4 °F 60% 30.30 in 10.0 mi NNW 8.1 mph - N/A   Clear
10:35 PM 32.0 °F 25.6 °F 19.4 °F 60% 30.31 in 10.0 mi North 6.9 mph - N/A   Clear
10:55 PM 32.0 °F 25.6 °F 19.4 °F 60% 30.30 in 10.0 mi North 6.9 mph - N/A   Clear
11:15 PM 32.0 °F 24.8 °F 19.4 °F 60% 30.30 in 10.0 mi North 8.1 mph - N/A   Clear
11:35 PM 30.2 °F 23.4 °F 19.4 °F 64% 30.30 in 10.0 mi North 6.9 mph - N/A   Clear
11:55 PM 30.2 °F 23.4 °F 19.4 °F 64% 30.29 in 10.0 mi North 6.9 mph - N/A   Clear